Total_Precipitation_Accumulation
1.74 1.68 1.50 1.40 1.30 1.24 1.22 1.17 1.04 0.94 0.88 0.86 0.82 0.77 0.71 0.67 0.62 0.61 0.62 0.65 0.86 1.27 1.61 1.77 1.85 1.82 1.78 1.77 1.77 1.73 1.64 1.47 1.34 1.20 1.07 0.96 0.90 0.87 0.92 0.96 0.96 0.94 0.94
1.93 1.86 1.74 1.63 1.49 1.39 1.35 1.32 1.18 1.19 1.17 1.11 1.01 0.91 0.80 0.74 0.68 0.62 0.60 0.63 0.74 0.97 1.35 1.70 1.87 1.94 2.05 2.09 2.05 1.92 1.82 1.72 1.63 1.50 1.31 1.16 1.04 0.99 1.05 1.05 1.00 0.98 0.99
2.08 2.01 1.98 1.82 1.60 1.53 1.56 1.55 1.46 1.41 1.34 1.26 1.17 1.10 1.00 0.91 0.81 0.73 0.68 0.66 0.72 0.86 1.13 1.44 1.67 1.87 2.13 2.36 2.44 2.33 2.09 1.90 1.76 1.64 1.54 1.41 1.27 1.13 1.15 1.19 1.18 1.14 1.10
2.18 2.13 2.08 2.04 1.85 1.78 1.81 1.75 1.65 1.58 1.45 1.34 1.24 1.21 1.14 1.08 1.00 0.96 0.91 0.81 0.78 0.75 0.93 1.25 1.46 1.71 2.03 2.32 2.58 2.64 2.42 2.14 1.88 1.73 1.64 1.58 1.51 1.44 1.37 1.33 1.33 1.29 1.26
2.39 2.28 2.09 2.05 2.06 1.94 1.88 1.90 1.83 1.70 1.59 1.51 1.44 1.36 1.29 1.23 1.16 1.10 1.10 1.03 0.96 0.88 0.86 1.03 1.24 1.40 1.69 2.05 2.36 2.65 2.60 2.35 2.10 1.87 1.75 1.72 1.73 1.72 1.63 1.51 1.45 1.40 1.36
2.42 2.35 2.20 2.18 2.22 2.12 1.92 1.84 1.80 1.76 1.67 1.67 1.65 1.54 1.46 1.40 1.35 1.27 1.18 1.17 1.13 1.05 0.97 0.93 0.98 1.11 1.34 1.68 2.02 2.39 2.62 2.56 2.38 2.12 1.92 1.84 1.85 1.90 1.86 1.78 1.72 1.62 1.55
2.55 2.51 2.39 2.38 2.38 2.28 2.12 2.04 2.04 1.95 1.83 1.80 1.80 1.64 1.55 1.51 1.40 1.33 1.26 1.15 1.11 1.10 1.09 1.04 0.96 0.95 1.05 1.34 1.64 1.98 2.42 2.73 2.72 2.55 2.29 2.12 2.04 2.03 2.10 2.16 2.08 1.96 1.85
2.85 2.75 2.70 2.70 2.64 2.51 2.38 2.27 2.23 2.17 2.01 1.97 2.00 1.95 1.79 1.74 1.55 1.29 1.22 1.13 1.10 1.09 1.09 1.13 1.11 1.00 0.93 1.01 1.20 1.51 1.91 2.43 2.88 3.07 2.96 2.72 2.55 2.40 2.41 2.44 2.46 2.37 2.22
3.05 2.93 2.88 2.93 2.92 2.79 2.64 2.48 2.35 2.26 2.25 2.18 2.08 2.20 1.96 1.66 1.50 1.39 1.24 1.14 1.11 1.13 1.12 1.14 1.14 1.10 1.00 0.93 0.96 1.14 1.46 1.91 2.48 3.04 3.34 3.31 3.10 2.89 2.84 2.86 2.87 2.83 2.68
3.16 3.08 3.04 3.03 3.05 3.04 2.88 2.75 2.61 2.49 2.45 2.37 2.24 2.02 1.88 1.63 1.55 1.45 1.32 1.25 1.19 1.14 1.12 1.12 1.14 1.15 1.16 1.12 1.09 1.12 1.22 1.47 1.97 2.53 3.02 3.25 3.31 3.21 3.14 3.11 3.18 3.23 3.15
3.18 3.12 3.04 2.96 2.92 2.96 3.02 2.98 2.79 2.68 2.53 2.32 2.18 2.01 1.89 1.67 1.47 1.46 1.31 1.21 1.23 1.15 1.09 1.07 1.13 1.17 1.20 1.19 1.15 1.22 1.32 1.40 1.72 2.22 2.78 3.14 3.36 3.53 3.54 3.41 3.31 3.26 3.23
3.13 3.09 3.04 2.93 2.78 2.72 2.76 2.88 2.90 2.77 2.64 2.44 2.23 2.07 1.95 1.84 1.64 1.57 1.50 1.26 1.22 1.17 1.14 1.11 1.08 1.10 1.15 1.19 1.23 1.45 1.42 1.51 1.76 2.16 2.69 3.20 3.43 3.55 3.69 3.70 3.61 3.47 3.30
2.94 2.90 2.90 2.90 2.83 2.71 2.71 2.76 2.84 2.78 2.67 2.55 2.38 2.21 2.07 1.89 1.72 1.72 1.78 1.63 1.41 1.21 1.17 1.17 1.15 1.17 1.19 1.27 1.39 1.65 1.61 1.69 1.84 2.15 2.59 3.02 3.23 3.28 3.36 3.55 3.70 3.72 3.66
2.85 2.80 2.71 2.66 2.69 2.66 2.63 2.66 2.67 2.69 2.67 2.57 2.42 2.25 2.11 1.94 1.87 1.91 1.95 2.04 1.97 1.61 1.36 1.25 1.21 1.28 1.37 1.47 1.70 1.86 1.66 1.86 1.97 2.19 2.51 2.81 2.85 2.86 2.86 3.00 3.29 3.52 3.56
2.63 2.70 2.69 2.53 2.46 2.46 2.47 2.48 2.46 2.39 2.43 2.43 2.33 2.24 2.10 1.95 1.95 1.97 2.04 2.21 2.48 2.35 1.86 1.45 1.40 1.44 1.49 1.64 1.94 1.81 1.67 1.97 2.03 2.07 2.19 2.28 2.24 2.29 2.44 2.51 2.61 2.79 2.93
2.20 2.32 2.44 2.45 2.38 2.37 2.35 2.32 2.26 2.15 2.13 2.10 2.09 2.14 2.08 1.94 1.92 1.94 2.03 2.14 2.30 2.43 2.19 1.59 1.39 1.44 1.58 1.69 1.98 1.82 1.74 1.98 1.91 1.95 1.96 1.99 1.95 1.96 2.05 2.19 2.21 2.21 2.29
1.89 2.01 2.13 2.27 2.29 2.27 2.26 2.20 2.10 2.05 1.99 1.90 1.88 1.96 1.95 1.85 1.88 1.87 1.91 2.02 2.14 2.30 2.33 1.84 1.53 1.52 1.67 1.71 1.73 1.65 1.60 1.59 1.57 1.77 1.70 1.71 1.74 1.73 1.73 1.85 1.99 1.99 1.98
1.71 1.78 1.80 1.87 1.98 2.04 2.10 2.10 2.01 1.93 1.88 1.80 1.75 1.82 1.85 1.82 1.86 1.87 1.93 1.98 2.00 2.05 2.15 2.00 1.68 1.55 1.53 1.51 1.47 1.45 1.44 1.36 1.29 1.55 1.53 1.50 1.51 1.50 1.46 1.48 1.65 1.77 1.76
1.48 1.58 1.60 1.62 1.66 1.72 1.80 1.87 1.89 1.86 1.79 1.71 1.73 1.76 1.78 1.86 1.90 1.89 1.93 1.98 1.94 1.86 1.83 1.82 1.62 1.43 1.39 1.38 1.45 1.39 1.37 1.36 1.22 1.36 1.46 1.44 1.43 1.36 1.33 1.32 1.38 1.50 1.56
1.14 1.20 1.29 1.35 1.44 1.50 1.58 1.63 1.67 1.73 1.76 1.74 1.74 1.75 1.77 1.86 1.95 1.99 2.01 1.99 1.93 1.88 1.80 1.76 1.66 1.50 1.41 1.36 1.45 1.48 1.44 1.41 1.33 1.20 1.36 1.41 1.41 1.40 1.32 1.25 1.20 1.19 1.29
0.92 0.94 1.04 1.13 1.23 1.32 1.42 1.50 1.54 1.59 1.62 1.65 1.70 1.75 1.78 1.91 1.99 1.97 1.89 1.79 1.74 1.77 1.73 1.70 1.62 1.50 1.41 1.40 1.42 1.33 1.29 1.31 1.35 1.25 1.25 1.28 1.27 1.23 1.21 1.24 1.24 1.21 1.23
0.93 0.93 0.96 1.02 1.11 1.19 1.45 1.54 1.50 1.49 1.53 1.57 1.58 1.59 1.64 1.74 1.67 1.70 1.67 1.61 1.65 1.76 1.77 1.64 1.48 1.32 1.14 1.10 1.12 1.23 1.31 1.44 1.52 1.26 1.19 1.24 1.21 1.28 1.18 1.13 1.26 1.24 1.22
0.94 0.99 0.98 1.01 1.06 1.19 1.41 1.47 1.61 1.54 1.51 1.48 1.45 1.44 1.41 1.35 1.39 1.26 1.34 1.38 1.36 1.43 1.45 1.42 1.40 1.16 1.01 0.96 1.15 1.34 1.36 1.33 1.22 1.07 1.17 1.37 1.27 1.25 1.13 1.14 1.31 1.25 1.22
1.09 1.13 1.11 1.12 1.17 1.28 1.46 1.48 1.54 1.46 1.36 1.30 1.22 1.19 1.20 1.16 1.17 1.24 1.26 1.29 1.15 1.07 1.06 1.01 1.00 0.95 0.98 1.06 1.26 1.46 1.51 1.52 1.34 1.17 1.21 1.47 1.33 1.25 1.14 1.11 1.26 1.25 1.25
1.34 1.34 1.33 1.29 1.29 1.32 1.38 1.31 1.32 1.26 1.20 1.11 1.02 1.00 1.04 1.04 1.16 1.36 1.37 1.32 1.19 1.08 1.08 1.12 1.13 1.13 1.23 1.34 1.46 1.68 1.84 1.99 1.84 1.41 1.21 1.28 1.21 1.18 1.21 1.20 1.25 1.34 1.30
1.30 1.27 1.27 1.22 1.15 1.08 1.10 1.09 1.11 1.07 1.04 0.94 0.89 0.91 1.03 1.09 1.27 1.46 1.43 1.37 1.31 1.12 1.08 1.14 1.16 1.14 1.12 1.19 1.35 1.37 1.52 1.89 1.88 1.56 1.12 1.16 1.19 1.33 1.62 1.32 1.22 1.28 1.30